Location: De Greiden
(52.9496°N, 5.9137°E)
Time: 01:38:45
(UTC+00:00)

Cosmos 44 - Pass Details

Date: 24 January 2021
Orbit: 572 x 789 km, 65.1° (Epoch: 26 February)

Event Time Altitude Azimuth Distance (km) Brightness Sun altitude
Rises 18:21:21 0° 213° (SSW) 2,995 7.1 -20.0°
Reaches altitude 10° 18:23:35 10° 212° (SSW) 2,119 6.3 -20.3°
Maximum altitude 18:28:24 71° 129° (SE) 758 3.2 -21.0°
Enters shadow 18:29:47 47° 61° (ENE) 958 3.6 -21.2°
